Wolf Creek, OR

6:37 PM PST on February 13, 2016 (GMT -0800)
Sexton Summit

Weather History for KSXT - January, 2013

Change the Weather History Date:

Sunday, January 6, 2013

  Actual Average (KMFR) Record (KMFR)
Temperature  
Mean Temperature 33 °F 39 °F  
Max Temperature 36 °F 46 °F 65 °F (1914)
Min Temperature 30 °F 32 °F 9 °F (1937)
Degree Days  
Heating Degree Days 32 26  
Month to date heating degree days 156  
Since 1 July heating degree days 1922  
Cooling Degree Days 0 0  
Month to date cooling degree days 0  
Year to date cooling degree days 0  
Moisture  
Dew Point 30 °F    
Average Humidity 94    
Maximum Humidity 100    
Minimum Humidity 81    
Precipitation  
Precipitation 0.00 in 0.09 in 1.10 in (1948)
Month to date precipitation 0.54  
Year to date precipitation 0.54  
Snow  
Snow 0.00 in 0.00 in - ()
Month to date snowfall 0.3  
Since 1 July snowfall 2.0  
Snow Depth -    
Sea Level Pressure  
Sea Level Pressure 30.15 in    
Wind  
Wind Speed 6 mph (SE)    
Max Wind Speed 14 mph    
Max Gust Speed -    
Visibility 5 miles    
Events Fog , Rain    
T = Trace of Precipitation, MM = Missing Value Source: NWS Daily Summary

Daily Weather History Graph

Daily Weather History Graph

Search for Another Location

Airport or City:

Trip Planner

Search our weather history database for the weather conditions in past years. The results will help you decide how hot, cold, wet, or windy it might be!

Date:

Astronomy

Jan. 06, 2013 Rise Set
Actual Time 7:43 AM PST 4:55 PM PST
Civil Twilight 7:11 AM PST 5:27 PM PST
Nautical Twilight 6:36 AM PST 6:02 PM PST
Astronomical Twilight 6:02 AM PST 6:37 PM PST
Moon 2:01 AM PST (1/6) 12:29 PM PST (1/6)
Length of Visible Light 10h 15m
Length of Day
9h 12m
Waning Crescent, 32% of the Moon is Illuminated
Jan 6
Waning Crescent
Jan 11
New
Jan 18
First Quarter
Jan 26
Full
Feb 3
Last Quarter

Hourly Weather History & Observations

Time (PST) Temp. Windchill Dew Point Humidity Pressure Visibility Wind Dir Wind Speed Gust Speed Precip Events Conditions
12:06 AM 30.2 °F 24.3 °F 30.2 °F 100% 30.09 in 1.0 mi North 5.8 mph - N/A   Mist
12:08 AM 30.2 °F 25.4 °F 30.2 °F 100% 30.09 in 0.2 mi North 4.6 mph - N/A Fog Light Freezing Fog
12:56 AM 30.9 °F 23.5 °F 30.0 °F 96% 30.14 in 0.2 mi NNW 8.1 mph - N/A Fog Light Freezing Fog
1:32 AM 30.2 °F 23.4 °F 30.2 °F 100% 30.08 in 0.2 mi NNW 6.9 mph - N/A Fog Light Freezing Fog
1:44 AM 30.2 °F 24.3 °F 30.2 °F 100% 30.08 in 0.2 mi NNW 5.8 mph - N/A Fog Light Freezing Fog
1:56 AM 30.9 °F 24.3 °F 30.0 °F 96% 30.15 in 0.5 mi NNW 6.9 mph - N/A Fog Light Freezing Fog
2:06 AM 30.2 °F 24.3 °F 30.2 °F 100% 30.09 in 0.8 mi NNW 5.8 mph - N/A   Overcast
2:12 AM 30.2 °F 23.4 °F 30.2 °F 100% 30.09 in 1.5 mi NNW 6.9 mph - N/A   Overcast
2:17 AM 30.2 °F 24.3 °F 30.2 °F 100% 30.09 in 3.0 mi NNW 5.8 mph - N/A   Overcast
2:25 AM 30.2 °F 24.3 °F 30.2 °F 100% 30.10 in 4.0 mi NNW 5.8 mph - N/A   Overcast
2:56 AM 32.0 °F - 30.9 °F 96% 30.16 in 10.0 mi Calm Calm - N/A   Overcast
3:06 AM 32.0 °F 28.7 °F 30.2 °F 93% 30.10 in 10.0 mi North 3.5 mph - N/A   Overcast
4:56 AM 30.9 °F 24.3 °F 28.9 °F 92% 30.16 in 10.0 mi SE 6.9 mph - N/A   Clear
5:19 AM 30.2 °F 23.4 °F 28.4 °F 93% 30.08 in 0.5 mi SSE 6.9 mph - N/A Fog Light Freezing Fog
5:26 AM 30.2 °F - 28.4 °F 93% 30.09 in 0.2 mi Calm Calm - N/A Fog Light Freezing Fog
5:54 AM 30.2 °F - 28.4 °F 93% 30.09 in 0.2 mi Calm Calm - N/A Fog Light Freezing Fog
5:56 AM 30.0 °F - 28.9 °F 96% 30.17 in 0.2 mi Calm Calm - N/A Fog Light Freezing Fog
6:30 AM 30.2 °F - 28.4 °F 93% 30.09 in 0.2 mi Calm Calm - N/A Fog Light Freezing Fog
6:56 AM 30.0 °F - 28.9 °F 96% 30.18 in 0.2 mi Calm Calm - N/A Fog Light Freezing Fog
7:26 AM 30.2 °F - 30.2 °F 100% 30.12 in 0.2 mi Calm Calm - N/A Fog Light Freezing Fog
7:56 AM 30.0 °F - 30.0 °F 100% 30.22 in 0.2 mi Calm Calm - N/A Fog Light Freezing Fog
8:20 AM 30.2 °F - 30.2 °F 100% 30.13 in 0.2 mi Calm Calm - N/A Fog Light Freezing Fog
8:31 AM 30.2 °F - 30.2 °F 100% 30.13 in 0.2 mi Calm Calm - N/A Fog Light Freezing Fog
8:56 AM 30.9 °F - 30.0 °F 96% 30.22 in 0.2 mi Calm Calm - N/A Fog Light Freezing Fog
9:56 AM 30.9 °F 25.2 °F 30.0 °F 96% 30.23 in 0.2 mi SE 5.8 mph - N/A Fog Light Freezing Fog
10:56 AM 32.0 °F 26.4 °F 32.0 °F 100% 30.22 in 0.5 mi SSE 5.8 mph - N/A Fog Fog
11:07 AM 32.0 °F 24.8 °F 30.2 °F 93% 30.15 in 10.0 mi SSE 8.1 mph - N/A   Mostly Cloudy
11:20 AM 33.8 °F 27.7 °F 30.2 °F 87% 30.15 in 10.0 mi SSE 6.9 mph - N/A   Scattered Clouds
11:43 AM 33.8 °F 28.6 °F 30.2 °F 87% 30.15 in 10.0 mi Variable 5.8 mph - N/A   Mostly Cloudy
11:56 AM 36.0 °F 29.6 °F 30.9 °F 82% 30.20 in 10.0 mi SSE 8.1 mph - N/A   Mostly Cloudy
12:11 PM 35.6 °F 29.9 °F 30.2 °F 81% 30.14 in 10.0 mi SSE 6.9 mph - N/A   Scattered Clouds
12:56 PM 36.0 °F 30.3 °F 30.9 °F 82% 30.18 in 10.0 mi SSE 6.9 mph - N/A   Partly Cloudy
1:56 PM 36.0 °F 31.1 °F 30.9 °F 82% 30.18 in 10.0 mi SE 5.8 mph - N/A   Scattered Clouds
2:04 PM 35.6 °F 29.2 °F 30.2 °F 81% 30.12 in 10.0 mi SE 8.1 mph - N/A   Mostly Cloudy
2:51 PM 33.8 °F 27.7 °F 30.2 °F 87% 30.12 in 10.0 mi SE 6.9 mph - N/A   Scattered Clouds
2:56 PM 34.0 °F 27.2 °F 30.0 °F 85% 30.19 in 10.0 mi SE 8.1 mph - N/A   Scattered Clouds
3:45 PM 33.8 °F 27.0 °F 30.2 °F 87% 30.12 in 10.0 mi SE 8.1 mph - N/A   Mostly Cloudy
3:56 PM 32.0 °F 24.8 °F 30.0 °F 92% 30.20 in 10.0 mi SE 8.1 mph - N/A   Scattered Clouds
4:56 PM 32.0 °F 24.8 °F 28.9 °F 88% 30.20 in 10.0 mi SE 8.1 mph - N/A   Clear
5:56 PM 30.9 °F 22.2 °F 30.0 °F 96% 30.22 in 10.0 mi SSE 10.4 mph - N/A   Clear
6:10 PM 32.0 °F 24.8 °F 30.2 °F 93% 30.15 in 10.0 mi SE 8.1 mph - N/A   Scattered Clouds
6:56 PM 32.0 °F 23.6 °F 28.9 °F 88% 30.22 in 10.0 mi SSE 10.4 mph - N/A   Overcast
7:10 PM 32.0 °F 23.0 °F 30.2 °F 93% 30.14 in 10.0 mi SSE 11.5 mph - N/A   Overcast
7:56 PM 30.9 °F 21.2 °F 30.0 °F 96% 30.21 in 10.0 mi SSE 12.7 mph - N/A   Overcast
8:56 PM 30.9 °F 21.2 °F 28.9 °F 92% 30.22 in 10.0 mi SSE 12.7 mph - N/A   Overcast
9:56 PM 30.9 °F 20.7 °F 30.0 °F 96% 30.22 in 10.0 mi SSE 13.8 mph - 0.00 in   Overcast
10:06 PM 30.2 °F 19.8 °F 30.2 °F 100% 30.13 in 10.0 mi SSE 13.8 mph - N/A   Overcast
10:43 PM 32.0 °F 23.0 °F 30.2 °F 93% 30.14 in 10.0 mi SSE 11.5 mph - N/A   Overcast
10:56 PM 32.0 °F 22.5 °F 30.0 °F 92% 30.22 in 5.0 mi SSE 12.7 mph - N/A   Overcast
11:13 PM 30.2 °F 19.8 °F 30.2 °F 100% 30.13 in 3.0 mi SSE 13.8 mph - 0.00 in Rain Light Freezing Rain
11:31 PM 32.0 °F 23.0 °F 30.2 °F 93% 30.14 in 2.0 mi SSE 11.5 mph - 0.00 in Rain Light Freezing Rain
11:53 PM 32.0 °F 22.5 °F 30.2 °F 93% 30.14 in 1.5 mi South 12.7 mph - 0.00 in Rain Light Freezing Rain
11:56 PM 32.0 °F 22.1 °F 30.9 °F 96% 30.20 in 0.8 mi South 13.8 mph - 0.00 in Rain Light Freezing Rain